Year,Month,Day,Hour,Minute,Value (Times are PST for temperature in C)
2015,06,16,00,00,16.90
2015,06,16,00,01,16.90
2015,06,16,00,02,16.80
2015,06,16,00,03,16.80
2015,06,16,00,04,16.80
2015,06,16,00,05,16.80
2015,06,16,00,06,16.70
2015,06,16,00,08,16.70
2015,06,16,00,09,16.70
2015,06,16,00,10,16.70
2015,06,16,00,11,16.70
2015,06,16,00,12,16.70
2015,06,16,00,13,16.70
2015,06,16,00,14,16.70
2015,06,16,00,15,16.70
2015,06,16,00,16,16.80
2015,06,16,00,17,16.80
2015,06,16,00,19,16.70
2015,06,16,00,20,16.70
2015,06,16,00,21,16.70
2015,06,16,00,22,16.70
2015,06,16,00,23,16.70
2015,06,16,00,24,16.70
2015,06,16,00,25,16.70
2015,06,16,00,26,16.70
2015,06,16,00,27,16.60
2015,06,16,00,28,16.60
2015,06,16,00,29,16.60
2015,06,16,00,30,16.60
2015,06,16,00,31,16.50
2015,06,16,00,32,16.50
2015,06,16,00,33,16.40
2015,06,16,00,34,16.40
2015,06,16,00,35,16.40
2015,06,16,00,36,16.40
2015,06,16,00,38,16.30
2015,06,16,00,39,16.30
2015,06,16,00,40,16.20
2015,06,16,00,41,16.20
2015,06,16,00,43,16.10
2015,06,16,00,44,16.10
2015,06,16,00,45,16.10
2015,06,16,00,46,16.10
2015,06,16,00,47,16.10
2015,06,16,00,48,16.00
2015,06,16,00,49,16.00
2015,06,16,00,50,16.00
2015,06,16,00,51,16.00
2015,06,16,00,52,15.90
2015,06,16,00,53,15.90
2015,06,16,00,56,15.90
2015,06,16,00,57,15.80
2015,06,16,00,58,15.80
2015,06,16,00,59,15.80
2015,06,16,01,00,15.80
2015,06,16,01,02,15.80
2015,06,16,01,03,15.80
2015,06,16,01,04,15.70
2015,06,16,01,05,15.70
2015,06,16,01,06,15.70
2015,06,16,01,07,15.60
2015,06,16,01,08,15.60
2015,06,16,01,09,15.60
2015,06,16,01,10,15.50
2015,06,16,01,11,15.50
2015,06,16,01,12,15.40
2015,06,16,01,13,15.40
2015,06,16,01,14,15.40
2015,06,16,01,15,15.40
2015,06,16,01,16,15.30
2015,06,16,01,17,15.30
2015,06,16,01,18,15.30
2015,06,16,01,19,15.30
2015,06,16,01,20,15.20
2015,06,16,01,21,15.20
2015,06,16,01,22,15.20
2015,06,16,01,23,15.20
2015,06,16,01,24,15.20
2015,06,16,01,25,15.20
2015,06,16,01,26,15.20
2015,06,16,01,27,15.20
2015,06,16,01,28,15.20
2015,06,16,01,29,15.20
2015,06,16,01,30,15.20
2015,06,16,01,31,15.10
2015,06,16,01,32,15.10
2015,06,16,01,33,15.10
2015,06,16,01,34,15.10
2015,06,16,01,35,15.10
2015,06,16,01,36,15.10
2015,06,16,01,37,15.00
2015,06,16,01,38,15.00
2015,06,16,01,39,14.90
2015,06,16,01,40,14.90
2015,06,16,01,41,14.90
2015,06,16,01,42,14.80
2015,06,16,01,43,14.80
2015,06,16,01,44,14.80
2015,06,16,01,45,14.80
2015,06,16,01,46,14.70
2015,06,16,01,47,14.70
2015,06,16,01,48,14.70
2015,06,16,01,49,14.70
2015,06,16,01,50,14.70
2015,06,16,01,51,14.60
2015,06,16,01,52,14.60
2015,06,16,01,53,14.60
2015,06,16,01,54,14.60
2015,06,16,01,55,14.60
2015,06,16,01,56,14.60
2015,06,16,01,57,14.60
2015,06,16,01,58,14.60
2015,06,16,01,59,14.50
2015,06,16,02,00,14.50
2015,06,16,02,01,14.50
2015,06,16,02,02,14.50
2015,06,16,02,03,14.50
2015,06,16,02,04,14.40
2015,06,16,02,05,14.40
2015,06,16,02,06,14.40
2015,06,16,02,07,14.40
2015,06,16,02,08,14.40
2015,06,16,02,09,14.40
2015,06,16,02,10,14.40
2015,06,16,02,11,14.40
2015,06,16,02,12,14.40
2015,06,16,02,13,14.40
2015,06,16,02,14,14.40
2015,06,16,02,15,14.40
2015,06,16,02,16,14.40
2015,06,16,02,19,14.40
2015,06,16,02,20,14.40
2015,06,16,02,21,14.40
2015,06,16,02,22,14.30
2015,06,16,02,23,14.30
2015,06,16,02,24,14.30
2015,06,16,02,26,14.30
2015,06,16,02,29,14.20
2015,06,16,02,30,14.20
2015,06,16,02,31,14.20
2015,06,16,02,32,14.20
2015,06,16,02,33,14.20
2015,06,16,02,34,14.10
2015,06,16,02,35,14.10
2015,06,16,02,36,14.10
2015,06,16,02,37,14.10
2015,06,16,02,38,14.10
2015,06,16,02,39,14.10
2015,06,16,02,40,14.10
2015,06,16,02,41,14.00
2015,06,16,02,42,14.00
2015,06,16,02,43,14.00
2015,06,16,02,44,14.00
2015,06,16,02,45,14.00
2015,06,16,02,46,14.00
2015,06,16,02,47,13.90
2015,06,16,02,48,13.90
2015,06,16,02,49,13.90
2015,06,16,02,50,13.90
2015,06,16,02,51,13.90
2015,06,16,02,52,13.90
2015,06,16,02,53,13.90
2015,06,16,02,54,13.90
2015,06,16,02,55,13.90
2015,06,16,02,56,13.90
2015,06,16,02,57,13.80
2015,06,16,02,58,13.80
2015,06,16,02,59,13.80
2015,06,16,03,00,13.80
2015,06,16,03,01,13.80
2015,06,16,03,02,13.80
2015,06,16,03,03,13.80
2015,06,16,03,04,13.90
2015,06,16,03,05,13.90
2015,06,16,03,07,13.90
2015,06,16,03,08,13.90
2015,06,16,03,09,13.90
2015,06,16,03,10,13.80
2015,06,16,03,11,13.80
2015,06,16,03,12,13.80
2015,06,16,03,13,13.80
2015,06,16,03,14,13.80
2015,06,16,03,15,13.80
2015,06,16,03,16,13.70
2015,06,16,03,17,13.70
2015,06,16,03,19,13.70
2015,06,16,03,20,13.60
2015,06,16,03,21,13.60
2015,06,16,03,22,13.60
2015,06,16,03,23,13.50
2015,06,16,03,24,13.50
2015,06,16,03,25,13.40
2015,06,16,03,27,13.40
2015,06,16,03,28,13.40
2015,06,16,03,29,13.40
2015,06,16,03,30,13.30
2015,06,16,03,31,13.30
2015,06,16,03,32,13.30
2015,06,16,03,33,13.30
2015,06,16,03,35,13.30
2015,06,16,03,36,13.30
2015,06,16,03,37,13.30
2015,06,16,03,38,13.30
2015,06,16,03,39,13.30
2015,06,16,03,40,13.30
2015,06,16,03,41,13.30
2015,06,16,03,42,13.20
2015,06,16,03,43,13.30
2015,06,16,03,44,13.30
2015,06,16,03,45,13.30
2015,06,16,03,46,13.30
2015,06,16,03,47,13.30
2015,06,16,03,48,13.30
2015,06,16,03,49,13.30
2015,06,16,03,50,13.30
2015,06,16,03,51,13.30
2015,06,16,03,52,13.40
2015,06,16,03,53,13.40
2015,06,16,03,54,13.40
2015,06,16,03,55,13.40
2015,06,16,03,56,13.40
2015,06,16,03,57,13.40
2015,06,16,03,58,13.30
2015,06,16,03,59,13.40
2015,06,16,04,00,13.30
2015,06,16,04,01,13.30
2015,06,16,04,02,13.30
2015,06,16,04,03,13.30
2015,06,16,04,05,13.30
2015,06,16,04,06,13.30
2015,06,16,04,07,13.30
2015,06,16,04,08,13.30
2015,06,16,04,09,13.30
2015,06,16,04,10,13.30
2015,06,16,04,11,13.30
2015,06,16,04,12,13.30
2015,06,16,04,13,13.30
2015,06,16,04,14,13.30
2015,06,16,04,15,13.30
2015,06,16,04,17,13.30
2015,06,16,04,18,13.30
2015,06,16,04,19,13.30
2015,06,16,04,20,13.30
2015,06,16,04,21,13.30
2015,06,16,04,22,13.20
2015,06,16,04,23,13.20
2015,06,16,04,24,13.20
2015,06,16,04,25,13.20
2015,06,16,04,26,13.20
2015,06,16,04,27,13.20
2015,06,16,04,28,13.20
2015,06,16,04,29,13.10
2015,06,16,04,30,13.10
2015,06,16,04,31,13.10
2015,06,16,04,32,13.10
2015,06,16,04,33,13.10
2015,06,16,04,34,13.10
2015,06,16,04,35,13.00
2015,06,16,04,36,13.00
2015,06,16,04,37,13.00
2015,06,16,04,38,13.00
2015,06,16,04,39,13.00
2015,06,16,04,40,13.00
2015,06,16,04,41,13.00
2015,06,16,04,42,13.00
2015,06,16,04,43,13.00
2015,06,16,04,44,13.00
2015,06,16,04,45,13.00
2015,06,16,04,46,13.00
2015,06,16,04,48,13.00
2015,06,16,04,49,13.00
2015,06,16,04,52,13.00
2015,06,16,04,53,13.10
2015,06,16,04,54,13.10
2015,06,16,04,55,13.10
2015,06,16,04,56,13.10
2015,06,16,04,57,13.10
2015,06,16,04,58,13.10
2015,06,16,04,59,13.10
2015,06,16,05,00,13.10
2015,06,16,05,01,13.10
2015,06,16,05,02,13.10
2015,06,16,05,03,13.10
2015,06,16,05,04,13.10
2015,06,16,05,05,13.20
2015,06,16,05,06,13.20
2015,06,16,05,07,13.20
2015,06,16,05,08,13.20
2015,06,16,05,09,13.20
2015,06,16,05,10,13.30
2015,06,16,05,11,13.30
2015,06,16,05,12,13.30
2015,06,16,05,13,13.20
2015,06,16,05,14,13.20
2015,06,16,05,15,13.20
2015,06,16,05,16,13.10
2015,06,16,05,17,13.10
2015,06,16,05,18,13.00
2015,06,16,05,19,12.90
2015,06,16,05,20,12.90
2015,06,16,05,21,12.90
2015,06,16,05,22,12.80
2015,06,16,05,23,12.80
2015,06,16,05,24,12.80
2015,06,16,05,25,12.80
2015,06,16,05,26,12.70
2015,06,16,05,27,12.70
2015,06,16,05,28,12.70
2015,06,16,05,29,12.70
2015,06,16,05,30,12.70
2015,06,16,05,31,12.70
2015,06,16,05,32,12.60
2015,06,16,05,33,12.60
2015,06,16,05,34,12.60
2015,06,16,05,35,12.60
2015,06,16,05,36,12.60
2015,06,16,05,37,12.60
2015,06,16,05,38,12.60
2015,06,16,05,39,12.60
2015,06,16,05,40,12.50
2015,06,16,05,41,12.50
2015,06,16,05,42,12.50
2015,06,16,05,43,12.50
2015,06,16,05,45,12.50
2015,06,16,05,46,12.50
2015,06,16,05,47,12.50
2015,06,16,05,48,12.50
2015,06,16,05,49,12.50
2015,06,16,05,50,12.40
2015,06,16,05,51,12.50
2015,06,16,05,52,12.50
2015,06,16,05,53,12.40
2015,06,16,05,54,12.40
2015,06,16,05,55,12.40
2015,06,16,05,56,12.40
2015,06,16,05,57,12.40
2015,06,16,05,58,12.40
2015,06,16,05,59,12.40
2015,06,16,06,00,12.40
2015,06,16,06,01,12.40
2015,06,16,06,02,12.40
2015,06,16,06,03,12.40
2015,06,16,06,04,12.40
2015,06,16,06,05,12.40
2015,06,16,06,08,12.40
2015,06,16,06,09,12.40
2015,06,16,06,10,12.40
2015,06,16,06,11,12.40
2015,06,16,06,12,12.40
2015,06,16,06,13,12.40
2015,06,16,06,14,12.40
2015,06,16,06,15,12.40
2015,06,16,06,16,12.40
2015,06,16,06,17,12.40
2015,06,16,06,18,12.40
2015,06,16,06,19,12.40
2015,06,16,06,20,12.40
2015,06,16,06,21,12.40
2015,06,16,06,22,12.40
2015,06,16,06,23,12.40
2015,06,16,06,24,12.40
2015,06,16,06,25,12.40
2015,06,16,06,26,12.50
2015,06,16,06,27,12.40
2015,06,16,06,28,12.40
2015,06,16,06,29,12.50
2015,06,16,06,30,12.50
2015,06,16,06,31,12.60
2015,06,16,06,32,12.60
2015,06,16,06,33,12.60
2015,06,16,06,34,12.70
2015,06,16,06,35,12.70
2015,06,16,06,36,12.70
2015,06,16,06,37,12.70
2015,06,16,06,38,12.80
2015,06,16,06,39,12.80
2015,06,16,06,40,12.80
2015,06,16,06,41,12.90
2015,06,16,06,42,12.90
2015,06,16,06,43,12.90
2015,06,16,06,44,13.00
2015,06,16,06,45,13.10
2015,06,16,06,46,13.10
2015,06,16,06,47,13.20
2015,06,16,06,48,13.20
2015,06,16,06,49,13.30
2015,06,16,06,50,13.30
2015,06,16,06,51,13.30
2015,06,16,06,52,13.30
2015,06,16,06,55,13.40
2015,06,16,06,56,13.50
2015,06,16,06,57,13.50
2015,06,16,06,58,13.60
2015,06,16,06,59,13.70
2015,06,16,07,00,13.70
2015,06,16,07,01,13.70
2015,06,16,07,02,13.80
2015,06,16,07,03,13.80
2015,06,16,07,04,13.80
2015,06,16,07,05,13.80
2015,06,16,07,06,13.80
2015,06,16,07,07,13.90
2015,06,16,07,08,13.90
2015,06,16,07,09,14.00
2015,06,16,07,10,14.10
2015,06,16,07,11,14.20
2015,06,16,07,12,14.20
2015,06,16,07,14,14.30
2015,06,16,07,15,14.40
2015,06,16,07,16,14.50
2015,06,16,07,18,14.60
2015,06,16,07,19,14.70
2015,06,16,07,20,14.70
2015,06,16,07,21,14.80
2015,06,16,07,23,14.90
2015,06,16,07,25,15.10
2015,06,16,07,26,15.20
2015,06,16,07,28,15.30
2015,06,16,07,30,15.30
2015,06,16,07,31,15.30
2015,06,16,07,32,15.40
2015,06,16,07,33,15.40
2015,06,16,07,35,15.30
2015,06,16,07,36,15.30
2015,06,16,07,37,15.40
2015,06,16,07,38,15.40
2015,06,16,07,39,15.40
2015,06,16,07,40,15.40
2015,06,16,07,41,15.40
2015,06,16,07,42,15.40
2015,06,16,07,43,15.40
2015,06,16,07,44,15.40
2015,06,16,07,45,15.40
2015,06,16,07,46,15.50
2015,06,16,07,47,15.60
2015,06,16,07,48,15.60
2015,06,16,07,50,15.60
2015,06,16,07,51,15.60
2015,06,16,07,52,15.50
2015,06,16,07,53,15.50
2015,06,16,07,54,15.50
2015,06,16,07,55,15.40
2015,06,16,07,56,15.40
2015,06,16,07,57,15.40
2015,06,16,07,58,15.40
2015,06,16,07,59,15.40
2015,06,16,08,00,15.40
2015,06,16,08,01,15.40
2015,06,16,08,02,15.40
2015,06,16,08,03,15.40
2015,06,16,08,04,15.40
2015,06,16,08,05,15.40
2015,06,16,08,06,15.50
2015,06,16,08,07,15.50
2015,06,16,08,08,15.60
2015,06,16,08,09,15.60
2015,06,16,08,10,15.60
2015,06,16,08,11,15.70
2015,06,16,08,12,15.70
2015,06,16,08,13,15.80
2015,06,16,08,14,15.80
2015,06,16,08,15,15.90
2015,06,16,08,16,15.90
2015,06,16,08,17,16.10
2015,06,16,08,18,16.10
2015,06,16,08,19,16.20
2015,06,16,08,20,16.30
2015,06,16,08,21,16.40
2015,06,16,08,22,16.40
2015,06,16,08,23,16.50
2015,06,16,08,24,16.60
2015,06,16,08,25,16.60
2015,06,16,08,26,16.40
2015,06,16,08,27,16.40
2015,06,16,08,28,16.40
2015,06,16,08,29,16.40
2015,06,16,08,30,16.40
2015,06,16,08,31,16.40
2015,06,16,08,32,16.40
2015,06,16,08,33,16.60
2015,06,16,08,34,16.60
2015,06,16,08,35,16.70
2015,06,16,08,36,16.70
2015,06,16,08,37,16.80
2015,06,16,08,38,16.90
2015,06,16,08,39,17.00
2015,06,16,08,40,17.10
2015,06,16,08,41,17.20
2015,06,16,08,42,17.20
2015,06,16,08,43,17.30
2015,06,16,08,44,17.30
2015,06,16,08,45,17.30
2015,06,16,08,46,17.30
2015,06,16,08,47,17.30
2015,06,16,08,48,17.40
2015,06,16,08,49,17.40
2015,06,16,08,50,17.40
2015,06,16,08,51,17.40
2015,06,16,08,52,17.50
2015,06,16,08,53,17.50
2015,06,16,08,54,17.50
2015,06,16,08,55,17.60
2015,06,16,08,56,17.60
2015,06,16,08,57,17.70
2015,06,16,08,58,17.70
2015,06,16,08,59,17.80
2015,06,16,09,00,17.80
2015,06,16,09,01,17.80
2015,06,16,09,02,17.80
2015,06,16,09,03,17.80
2015,06,16,09,04,17.80
2015,06,16,09,05,17.80
2015,06,16,09,06,17.90
2015,06,16,09,07,17.90
2015,06,16,09,08,18.00
2015,06,16,09,09,18.00
2015,06,16,09,10,18.10
2015,06,16,09,11,18.10
2015,06,16,09,12,18.10
2015,06,16,09,13,18.10
2015,06,16,09,14,18.10
2015,06,16,09,15,18.10
2015,06,16,09,16,18.10
2015,06,16,09,17,18.10
2015,06,16,09,18,18.10
2015,06,16,09,19,18.10
2015,06,16,09,20,18.10
2015,06,16,09,21,18.10
2015,06,16,09,22,18.10
2015,06,16,09,23,18.10
2015,06,16,09,24,18.10
2015,06,16,09,25,18.10
2015,06,16,09,26,18.10
2015,06,16,09,27,18.10
2015,06,16,09,28,18.10
2015,06,16,09,29,18.20
2015,06,16,09,30,18.20
2015,06,16,09,31,18.30
2015,06,16,09,32,18.40
2015,06,16,09,33,18.40
2015,06,16,09,34,18.50
2015,06,16,09,35,18.60
2015,06,16,09,36,18.60
2015,06,16,09,37,18.70
2015,06,16,09,38,18.70
2015,06,16,09,39,18.80
2015,06,16,09,40,18.80
2015,06,16,09,41,18.90
2015,06,16,09,42,18.90
2015,06,16,09,43,18.90
2015,06,16,09,44,19.00
2015,06,16,09,46,19.00
2015,06,16,09,47,19.00
2015,06,16,09,48,19.00
2015,06,16,09,49,19.10
2015,06,16,09,50,19.10
2015,06,16,09,51,19.10
2015,06,16,09,52,19.10
2015,06,16,09,53,19.20
2015,06,16,09,54,19.20
2015,06,16,09,55,19.20
2015,06,16,09,56,19.30
2015,06,16,09,57,19.30
2015,06,16,09,58,19.40
2015,06,16,09,59,19.40
2015,06,16,10,00,19.40
2015,06,16,10,01,19.40
2015,06,16,10,02,19.40
2015,06,16,10,03,19.30
2015,06,16,10,04,19.30
2015,06,16,10,05,19.30
2015,06,16,10,06,19.30
2015,06,16,10,07,19.30
2015,06,16,10,08,19.30
2015,06,16,10,09,19.20
2015,06,16,10,10,19.20
2015,06,16,10,11,19.10
2015,06,16,10,12,18.90
2015,06,16,10,13,18.80
2015,06,16,10,14,18.70
2015,06,16,10,15,18.60
2015,06,16,10,16,18.50
2015,06,16,10,17,18.40
2015,06,16,10,18,18.40
2015,06,16,10,19,18.40
2015,06,16,10,21,18.40
2015,06,16,10,22,18.50
2015,06,16,10,23,18.60
2015,06,16,10,24,18.60
2015,06,16,10,26,18.70
2015,06,16,10,27,18.80
2015,06,16,10,28,18.70
2015,06,16,10,29,18.70
2015,06,16,10,30,18.80
2015,06,16,10,33,19.00
2015,06,16,10,34,19.00
2015,06,16,10,35,19.00
2015,06,16,10,36,19.00
2015,06,16,10,37,19.00
2015,06,16,10,38,19.00
2015,06,16,10,39,19.10
2015,06,16,10,40,19.10
2015,06,16,10,41,19.10
2015,06,16,10,42,19.10
2015,06,16,10,43,19.10
2015,06,16,10,44,19.10
2015,06,16,10,45,19.10
2015,06,16,10,46,19.10
2015,06,16,10,47,19.20
2015,06,16,10,48,19.20
2015,06,16,10,49,19.20
2015,06,16,10,50,19.30
2015,06,16,10,51,19.30
2015,06,16,10,52,19.30
2015,06,16,10,53,19.40
2015,06,16,10,54,19.30
2015,06,16,10,55,19.30
2015,06,16,10,56,19.30
2015,06,16,10,57,19.30
2015,06,16,10,58,19.30
2015,06,16,10,59,19.30
2015,06,16,11,00,19.30
2015,06,16,11,03,19.30
2015,06,16,11,04,19.20
2015,06,16,11,05,19.20
2015,06,16,11,06,19.30
2015,06,16,11,07,19.30
2015,06,16,11,09,19.30
2015,06,16,11,10,19.40
2015,06,16,11,11,19.40
2015,06,16,11,12,19.50
2015,06,16,11,13,19.60
2015,06,16,11,14,19.60
2015,06,16,11,15,19.60
2015,06,16,11,16,19.50
2015,06,16,11,17,19.50
2015,06,16,11,19,19.50
2015,06,16,11,20,19.40
2015,06,16,11,21,19.30
2015,06,16,11,22,19.30
2015,06,16,11,23,19.30
2015,06,16,11,24,19.30
2015,06,16,11,25,19.30
2015,06,16,11,26,19.30
2015,06,16,11,27,19.30
2015,06,16,11,28,19.30
2015,06,16,11,29,19.30
2015,06,16,11,30,19.30
2015,06,16,11,31,19.40
2015,06,16,11,32,19.40
2015,06,16,11,33,19.50
2015,06,16,11,34,19.50
2015,06,16,11,35,19.60
2015,06,16,11,36,19.60
2015,06,16,11,37,19.60
2015,06,16,11,38,19.60
2015,06,16,11,39,19.60
2015,06,16,11,40,19.60
2015,06,16,11,41,19.70
2015,06,16,11,42,19.70
2015,06,16,11,43,19.70
2015,06,16,11,44,19.70
2015,06,16,11,45,19.60
2015,06,16,11,46,19.60
2015,06,16,11,47,19.70
2015,06,16,11,48,19.70
2015,06,16,11,49,19.70
2015,06,16,11,50,19.80
2015,06,16,11,51,19.80
2015,06,16,11,52,19.80
2015,06,16,11,53,19.90
2015,06,16,11,54,19.80
2015,06,16,11,55,19.80
2015,06,16,11,56,19.80
2015,06,16,11,57,19.80
2015,06,16,11,58,19.80
2015,06,16,11,59,19.80
2015,06,16,12,00,19.80
2015,06,16,12,01,19.70
2015,06,16,12,02,19.70
2015,06,16,12,03,19.70
2015,06,16,12,04,19.70
2015,06,16,12,05,19.70
2015,06,16,12,06,19.60
2015,06,16,12,07,19.70
2015,06,16,12,08,19.70
2015,06,16,12,09,19.70
2015,06,16,12,10,19.70
2015,06,16,12,11,19.80
2015,06,16,12,12,19.80
2015,06,16,12,13,19.80
2015,06,16,12,14,19.70
2015,06,16,12,17,19.70
2015,06,16,12,18,19.70
2015,06,16,12,19,19.70
2015,06,16,12,20,19.70
2015,06,16,12,21,19.70
2015,06,16,12,22,19.70
2015,06,16,12,23,19.70
2015,06,16,12,24,19.70
2015,06,16,12,25,19.70
2015,06,16,12,26,19.70
2015,06,16,12,27,19.70
2015,06,16,12,28,19.70
2015,06,16,12,29,19.70
2015,06,16,12,30,19.80
2015,06,16,12,31,19.80
2015,06,16,12,32,19.90
2015,06,16,12,33,20.00
2015,06,16,12,34,19.90
2015,06,16,12,35,19.90
2015,06,16,12,36,19.90
2015,06,16,12,37,19.80
2015,06,16,12,38,19.80
2015,06,16,12,39,19.80
2015,06,16,12,40,19.80
2015,06,16,12,41,19.80
2015,06,16,12,42,19.80
2015,06,16,12,43,19.70
2015,06,16,12,44,19.80
2015,06,16,12,45,19.80
2015,06,16,12,46,19.80
2015,06,16,12,47,19.80
2015,06,16,12,48,19.80
2015,06,16,12,50,19.90
2015,06,16,12,51,19.90
2015,06,16,12,52,19.90
2015,06,16,12,53,19.90
2015,06,16,12,54,19.80
2015,06,16,12,55,19.80
2015,06,16,12,56,19.80
2015,06,16,12,57,19.80
2015,06,16,12,58,19.80
2015,06,16,12,59,19.80
2015,06,16,13,00,19.90
2015,06,16,13,01,19.90
2015,06,16,13,02,20.00
2015,06,16,13,03,20.00
2015,06,16,13,04,20.10
2015,06,16,13,05,20.10
2015,06,16,13,06,20.20
2015,06,16,13,07,20.20
2015,06,16,13,08,20.10
2015,06,16,13,09,20.10
2015,06,16,13,10,20.00
2015,06,16,13,11,20.00
2015,06,16,13,12,20.00
2015,06,16,13,13,20.00
2015,06,16,13,14,20.00
2015,06,16,13,15,20.00
2015,06,16,13,16,20.00
2015,06,16,13,17,19.90
2015,06,16,13,18,19.90
2015,06,16,13,19,19.90
2015,06,16,13,20,19.90
2015,06,16,13,21,19.80
2015,06,16,13,22,19.90
2015,06,16,13,23,19.90
2015,06,16,13,24,19.90
2015,06,16,13,25,20.00
2015,06,16,13,26,20.10
2015,06,16,13,27,20.10
2015,06,16,13,28,20.10
2015,06,16,13,29,20.10
2015,06,16,13,30,20.20
2015,06,16,13,31,20.30
2015,06,16,13,32,20.30
2015,06,16,13,33,20.40
2015,06,16,13,34,20.50
2015,06,16,13,35,20.60
2015,06,16,13,36,20.70
2015,06,16,13,37,20.70
2015,06,16,13,38,20.80
2015,06,16,13,39,20.80
2015,06,16,13,40,20.80
2015,06,16,13,41,20.80
2015,06,16,13,42,20.80
2015,06,16,13,43,20.80
2015,06,16,13,44,20.80
2015,06,16,13,45,20.80
2015,06,16,13,46,20.90
2015,06,16,13,47,20.90
2015,06,16,13,48,20.90
2015,06,16,13,49,21.00
2015,06,16,13,50,21.10
2015,06,16,13,51,21.10
2015,06,16,13,52,21.20
2015,06,16,13,53,21.20
2015,06,16,13,54,21.30
2015,06,16,13,55,21.30
2015,06,16,13,56,21.30
2015,06,16,13,57,21.30
2015,06,16,13,58,21.30
2015,06,16,13,59,21.40
2015,06,16,14,00,21.40
2015,06,16,14,01,21.40
2015,06,16,14,02,21.50
2015,06,16,14,03,21.50
2015,06,16,14,04,21.50
2015,06,16,14,05,21.60
2015,06,16,14,06,21.60
2015,06,16,14,07,21.60
2015,06,16,14,08,21.60
2015,06,16,14,09,21.60
2015,06,16,14,10,21.60
2015,06,16,14,11,21.60
2015,06,16,14,12,21.60
2015,06,16,14,13,21.60
2015,06,16,14,14,21.60
2015,06,16,14,15,21.60
2015,06,16,14,16,21.70
2015,06,16,14,17,21.70
2015,06,16,14,18,21.80
2015,06,16,14,19,21.80
2015,06,16,14,20,21.80
2015,06,16,14,21,21.80
2015,06,16,14,22,21.90
2015,06,16,14,23,21.80
2015,06,16,14,24,21.80
2015,06,16,14,25,21.80
2015,06,16,14,26,21.80
2015,06,16,14,27,21.80
2015,06,16,14,29,22.00
2015,06,16,14,30,22.10
2015,06,16,14,31,22.00
2015,06,16,14,32,21.90
2015,06,16,14,33,22.00
2015,06,16,14,34,22.00
2015,06,16,14,35,22.10
2015,06,16,14,36,22.10
2015,06,16,14,37,22.10
2015,06,16,14,38,22.20
2015,06,16,14,39,22.20
2015,06,16,14,40,22.30
2015,06,16,14,41,22.20
2015,06,16,14,42,22.20
2015,06,16,14,43,22.20
2015,06,16,14,44,22.20
2015,06,16,14,45,22.20
2015,06,16,14,48,22.30
2015,06,16,14,49,22.30
2015,06,16,14,50,22.20
2015,06,16,14,51,22.20
2015,06,16,14,52,22.10
2015,06,16,14,53,22.20
2015,06,16,14,54,22.20
2015,06,16,14,55,22.30
2015,06,16,14,56,22.30
2015,06,16,14,57,22.30
2015,06,16,14,59,22.30
2015,06,16,15,00,22.20
2015,06,16,15,01,22.10
2015,06,16,15,03,22.00
2015,06,16,15,06,21.90
2015,06,16,15,07,21.80
2015,06,16,15,08,21.80
2015,06,16,15,09,21.90
2015,06,16,15,10,21.90
2015,06,16,15,11,22.00
2015,06,16,15,12,22.00
2015,06,16,15,13,22.10
2015,06,16,15,15,22.20
2015,06,16,15,16,22.30
2015,06,16,15,17,22.30
2015,06,16,15,18,22.40
2015,06,16,15,19,22.40
2015,06,16,15,20,22.40
2015,06,16,15,21,22.40
2015,06,16,15,23,22.30
2015,06,16,15,24,22.30
2015,06,16,15,25,22.30
2015,06,16,15,26,22.40
2015,06,16,15,27,22.40
2015,06,16,15,28,22.40
2015,06,16,15,29,22.50
2015,06,16,15,30,22.50
2015,06,16,15,31,22.60
2015,06,16,15,32,22.60
2015,06,16,15,33,22.50
2015,06,16,15,34,22.50
2015,06,16,15,35,22.50
2015,06,16,15,36,22.60
2015,06,16,15,37,22.60
2015,06,16,15,38,22.60
2015,06,16,15,39,22.70
2015,06,16,15,40,22.70
2015,06,16,15,41,22.80
2015,06,16,15,42,22.80
2015,06,16,15,43,22.80
2015,06,16,15,44,22.80
2015,06,16,15,45,22.80
2015,06,16,15,46,22.80
2015,06,16,15,47,22.80
2015,06,16,15,48,22.90
2015,06,16,15,49,23.00
2015,06,16,15,50,23.10
2015,06,16,15,51,23.20
2015,06,16,15,52,23.10
2015,06,16,15,53,23.10
2015,06,16,15,54,23.10
2015,06,16,15,55,23.00
2015,06,16,15,56,22.90
2015,06,16,15,57,22.80
2015,06,16,15,58,22.80
2015,06,16,15,59,22.80
2015,06,16,16,00,22.70
2015,06,16,16,01,22.80
2015,06,16,16,02,22.80
2015,06,16,16,03,22.80
2015,06,16,16,04,22.80
2015,06,16,16,05,22.80
2015,06,16,16,06,22.80
2015,06,16,16,07,22.90
2015,06,16,16,08,22.90
2015,06,16,16,09,22.90
2015,06,16,16,10,22.90
2015,06,16,16,11,22.90
2015,06,16,16,12,22.90
2015,06,16,16,13,22.90
2015,06,16,16,14,22.90
2015,06,16,16,16,22.80
2015,06,16,16,17,22.80
2015,06,16,16,18,22.70
2015,06,16,16,19,22.70
2015,06,16,16,21,22.60
2015,06,16,16,22,22.60
2015,06,16,16,23,22.60
2015,06,16,16,24,22.50
2015,06,16,16,25,22.40
2015,06,16,16,26,22.40
2015,06,16,16,27,22.40
2015,06,16,16,28,22.40
2015,06,16,16,29,22.30
2015,06,16,16,30,22.30
2015,06,16,16,31,22.20
2015,06,16,16,32,22.10
2015,06,16,16,33,21.90
2015,06,16,16,34,21.80
2015,06,16,16,35,21.70
2015,06,16,16,36,21.50
2015,06,16,16,37,21.50
2015,06,16,16,38,21.40
2015,06,16,16,39,21.40
2015,06,16,16,40,21.40
2015,06,16,16,41,21.40
2015,06,16,16,42,21.50
2015,06,16,16,43,21.60
2015,06,16,16,44,21.60
2015,06,16,16,45,21.60
2015,06,16,16,46,21.50
2015,06,16,16,48,21.30
2015,06,16,16,49,21.20
2015,06,16,16,50,21.10
2015,06,16,16,51,20.90
2015,06,16,16,53,20.70
2015,06,16,16,54,20.70
2015,06,16,16,55,20.60
2015,06,16,16,56,20.50
2015,06,16,16,57,20.60
2015,06,16,16,58,20.50
2015,06,16,16,59,20.50
2015,06,16,17,01,20.40
2015,06,16,17,02,20.30
2015,06,16,17,03,20.20
2015,06,16,17,04,20.10
2015,06,16,17,05,20.10
2015,06,16,17,06,20.10
2015,06,16,17,07,20.10
2015,06,16,17,08,20.10
2015,06,16,17,09,20.10
2015,06,16,17,10,20.10
2015,06,16,17,11,20.10
2015,06,16,17,12,20.00
2015,06,16,17,13,20.00
2015,06,16,17,14,19.90
2015,06,16,17,15,19.90
2015,06,16,17,16,20.00
2015,06,16,17,17,19.90
2015,06,16,17,18,19.90
2015,06,16,17,19,19.90
2015,06,16,17,20,19.80
2015,06,16,17,21,19.80
2015,06,16,17,22,19.80
2015,06,16,17,23,19.90
2015,06,16,17,24,19.80
2015,06,16,17,25,19.90
2015,06,16,17,26,19.90
2015,06,16,17,27,19.90
2015,06,16,17,28,19.80
2015,06,16,17,29,19.80
2015,06,16,17,30,19.80
2015,06,16,17,31,19.80
2015,06,16,17,32,19.80
2015,06,16,17,33,19.80
2015,06,16,17,34,19.80
2015,06,16,17,35,19.80
2015,06,16,17,36,19.80
2015,06,16,17,37,19.80
2015,06,16,17,38,19.80
2015,06,16,17,39,19.80
2015,06,16,17,40,19.80
2015,06,16,17,41,19.80
2015,06,16,17,42,19.80
2015,06,16,17,43,19.80
2015,06,16,17,44,19.80
2015,06,16,17,45,19.80
2015,06,16,17,46,19.80
2015,06,16,17,47,19.80
2015,06,16,17,48,19.80
2015,06,16,17,49,19.80
2015,06,16,17,50,19.80
2015,06,16,17,51,19.80
2015,06,16,17,52,19.80
2015,06,16,17,53,19.80
2015,06,16,17,54,19.80
2015,06,16,17,55,19.80
2015,06,16,17,56,19.80
2015,06,16,17,57,19.80
2015,06,16,17,58,19.80
2015,06,16,17,59,19.80
2015,06,16,18,00,19.70
2015,06,16,18,01,19.70
2015,06,16,18,02,19.70
2015,06,16,18,03,19.70
2015,06,16,18,04,19.70
2015,06,16,18,05,19.70
2015,06,16,18,06,19.70
2015,06,16,18,07,19.60
2015,06,16,18,08,19.70
2015,06,16,18,09,19.70
2015,06,16,18,10,19.70
2015,06,16,18,11,19.70
2015,06,16,18,12,19.70
2015,06,16,18,13,19.70
2015,06,16,18,14,19.70
2015,06,16,18,17,19.80
2015,06,16,18,18,19.80
2015,06,16,18,19,19.70
2015,06,16,18,20,19.70
2015,06,16,18,21,19.70